This demonstration page uses our WeatherBlox Daily Observations layout. Learn more.

Left ArrowRight Arrow

39.29038, -76.61219

Hourly Observations for August 8, 2022

Temp ( °F °C ) Dew Point ( °F °C ) Humidity (%) Winds ( mph kmh ) Pressure ( in mb ) Visibility ( mi km ) Precip ( " mm )
12:54 am 00:54 Clear 80 26.7 74 23.3 82 82 SSW 5 7 30.09 1019 10 16 0.00 0.00
1:54 am 01:54 Mostly Clear 80 26.7 74 23.3 82 82 SSW 6 9 30.08 1019 10 16 0.00 0.00
2:54 am 02:54 Mostly Clear 79 26.1 73 22.8 82 82 SSW 6 9 30.06 1018 10 16 0.00 0.00
3:54 am 03:54 Mostly Clear 78 25.6 73 22.8 85 85 SSW 3 6 30.06 1018 10 16 0.00 0.00
4:54 am 04:54 Mostly Clear 78 25.6 73 22.8 85 85 S 5 7 30.05 1018 10 16 0.00 0.00
5:54 am 05:54 Mostly Clear 77 25 73 22.8 88 88 S 3 6 30.06 1018 10 16 0.00 0.00
6:54 am 06:54 Mostly Sunny 77 25 73 22.8 88 88 VRB 3 6 30.06 1018 10 16 0.00 0.00
7:54 am 07:54 Partly Cloudy 81 27.2 74 23.3 79 79 SW 6 9 30.07 1018 10 16 0.00 0.00
8:54 am 08:54 Partly Cloudy 82 27.8 74 23.3 77 77 SW 8 13 30.06 1018 10 16 0.00 0.00
9:54 am 09:54 Partly Cloudy 86 30 75 23.9 70 70 SW 7 11 30.05 1018 10 16 0.00 0.00
10:54 am 10:54 Partly Cloudy 88 31.1 74 23.3 63 63 W 5 7 30.05 1018 10 16 0.00 0.00
11:54 am 11:54 Partly Cloudy 91 32.8 74 23.3 58 58 WSW 7 11 30.04 1017 10 16 0.00 0.00
12:54 pm 12:54 Partly Cloudy 92 33.3 74 23.3 56 56 VRB 7 11 30.01 1016 10 16 0.00 0.00
1:54 pm 13:54 Mostly Cloudy 91 32.8 73 22.8 56 56 VRB 6 9 30.01 1016 10 16 0.00 0.00
2:54 pm 14:54 Mostly Cloudy with Thunderstorms 91 32.8 73 22.8 56 56 S 8 13 30.00 1016 10 16 0.00 0.00
3:16 pm 15:16 Partly Cloudy 89 31.7 73 22.8 59 59 SSW 6 9 29.98 1015 10 16 0.00 0.00
3:54 pm 15:54 Mostly Cloudy 88 31.1 75 23.9 66 66 SSE 5 7 29.97 1015 10 16 0.00 0.00
4:54 pm 16:54 Partly Cloudy 87 30.6 71 21.7 59 59 SSW 9 15 29.96 1015 10 16 0.00 0.00
5:54 pm 17:54 Partly Cloudy 84 28.9 71 21.7 65 65 SSW 5 7 29.95 1014 10 16 0.00 0.00
6:54 pm 18:54 Partly Cloudy 84 28.9 71 21.7 65 65 S 3 6 29.94 1014 10 16 0.00 0.00
7:54 pm 19:54 Partly Cloudy 84 28.9 72 22.2 67 67 SSW 7 11 29.95 1014 10 16 0.00 0.00
8:54 pm 20:54 Mostly Clear 81 27.2 73 22.8 77 77 Calm 29.95 1014 10 16 0.00 0.00
9:54 pm 21:54 Mostly Clear 80 26.7 73 22.8 79 79 Calm 29.96 1015 10 16 0.00 0.00
10:54 pm 22:54 Clear 80 26.7 74 23.3 82 82 Calm 29.96 1014 10 16 0.00 0.00
11:54 pm 23:54 Mostly Clear 79 26.1 74 23.3 85 85 VRB 3 6 29.96 1015 10 16 0.00 0.00

Powered by AerisWeather